Location: Bou Ouachlou
(32.7770°N, 5.6009°W)
Time: 21:05:15
(UTC+00:00)

STARLINK-1037 - Pass Details

Date: 07 June 2020
Orbit: 547 x 550 km, 53.0° (Epoch: 11 July)

Event Time Altitude Azimuth Distance (km) Brightness Sun altitude
Exits shadow 03:24:00 34° 168° (SSE) 905 4.4 -19.4°
Maximum altitude 03:25:05 42° 129° (SE) 783 4.4 -19.2°
Drops below altitude 10° 03:29:00 10° 58° (ENE) 1,815 7.4 -18.6°
Sets 03:31:18 0° 51° (NE) 2,712 8.8 -18.3°
